• In Deutschland
  • Länderverzeichnis
  • Für 7 Tage
  • Wassertemperatur
  • Satellitenkarten
  • Wetterkarte
  • Widgets
  • user-avatar
    Anmelden

    Stündliche Wetter Dreieich

    Heute, 19 Oktober, Donnerstag

    Zeit Temperatur Niederschläge Wind Luftdruck Luftfeuchtigkeit
    00:00 +13°C° 0 mm 1 m/S 745 mmHg 75%
    01:00 +13°C° 0 mm 1 m/S 745 mmHg 75%
    02:00 +12°C° 0 mm 1 m/S 745 mmHg 75%
    03:00 +12°C° 0 mm 1 m/S 745 mmHg 75%
    04:00 +12°C° 0 mm 1 m/S 745 mmHg 75%
    05:00 +12°C° 0 mm 1 m/S 745 mmHg 76%
    06:00 +12°C° 0 mm 1 m/S 745 mmHg 76%
    07:00 +11°C° 0 mm 1 m/S 745 mmHg 76%
    08:00 +13°C° 0 mm 1 m/S 745 mmHg 70%
    09:00 +15°C° 0 mm 1 m/S 745 mmHg 64%
    10:00 +18°C° 0 mm 1 m/S 745 mmHg 59%
    11:00 +18°C° 0 mm 2 m/S 745 mmHg 55%
    12:00 +20°C° 0 mm 2 m/S 745 mmHg 51%
    13:00 +21°C° 0 mm 2 m/S 745 mmHg 48%
    14:00 +21°C° 0 mm 2 m/S 744 mmHg 50%
    15:00 +21°C° 0 mm 2 m/S 744 mmHg 53%
    16:00 +21°C° 0 mm 2 m/S 744 mmHg 55%
    17:00 +20°C° 0 mm 1 m/S 744 mmHg 60%
    18:00 +19°C° 0 mm 1 m/S 744 mmHg 64%
    19:00 +16°C° 0 mm 1 m/S 744 mmHg 68%
    20:00 +16°C° 0 mm 1 m/S 744 mmHg 70%
    21:00 +15°C° 0 mm 1 m/S 744 mmHg 72%
    22:00 +15°C° 0 mm 1 m/S 745 mmHg 74%
    23:00 +14°C° 0 mm 1 m/S 745 mmHg 75%

    Morgen, 20 Oktober, Freitag

    Zeit Temperatur Niederschläge Wind Luftdruck Luftfeuchtigkeit
    00:00 +14°C° 0 mm 1 m/S 745 mmHg 76%
    01:00 +14°C° 0 mm 1 m/S 745 mmHg 77%
    02:00 +13°C° 0 mm 1 m/S 745 mmHg 78%
    03:00 +13°C° 0 mm 1 m/S 745 mmHg 79%
    04:00 +13°C° 0 mm 1 m/S 745 mmHg 79%
    05:00 +13°C° 0 mm 1 m/S 745 mmHg 79%
    06:00 +12°C° 0 mm 1 m/S 745 mmHg 79%
    07:00 +12°C° 0 mm 1 m/S 745 mmHg 79%
    08:00 +14°C° 0 mm 1 m/S 745 mmHg 74%
    09:00 +15°C° 0 mm 2 m/S 746 mmHg 69%
    10:00 +16°C° 0 mm 2 m/S 746 mmHg 64%
    11:00 +17°C° 0,3 mm 2 m/S 746 mmHg 65%
    12:00 +17°C° 0,3 mm 3 m/S 746 mmHg 65%
    13:00 +17°C° 0,3 mm 3 m/S 746 mmHg 66%
    14:00 +17°C° 0,3 mm 3 m/S 746 mmHg 71%
    15:00 +16°C° 0,3 mm 3 m/S 746 mmHg 76%
    16:00 +16°C° 0,3 mm 2 m/S 746 mmHg 81%
    17:00 +15°C° 0,1 mm 2 m/S 746 mmHg 83%
    18:00 +15°C° 0,1 mm 2 m/S 746 mmHg 85%
    19:00 +14°C° 0,1 mm 2 m/S 747 mmHg 88%
    20:00 +14°C° 0,1 mm 2 m/S 747 mmHg 89%
    21:00 +13°C° 0,1 mm 2 m/S 747 mmHg 89%
    22:00 +13°C° 0,1 mm 1 m/S 747 mmHg 90%
    23:00 +13°C° 0 mm 1 m/S 747 mmHg 91%

    übermorgen, 21 Oktober, Samstag

    Zeit Temperatur Niederschläge Wind Luftdruck Luftfeuchtigkeit
    00:00 +12°C° 0 mm 1 m/S 747 mmHg 91%
    01:00 +12°C° 0 mm 1 m/S 747 mmHg 92%
    02:00 +12°C° 0 mm 2 m/S 747 mmHg 92%
    03:00 +13°C° 0 mm 2 m/S 747 mmHg 91%
    04:00 +13°C° 0 mm 2 m/S 746 mmHg 90%
    05:00 +13°C° 0 mm 2 m/S 746 mmHg 89%
    06:00 +13°C° 0 mm 2 m/S 746 mmHg 88%
    07:00 +13°C° 0 mm 2 m/S 746 mmHg 87%
    08:00 +14°C° 0 mm 3 m/S 746 mmHg 83%
    09:00 +16°C° 0 mm 3 m/S 746 mmHg 79%
    10:00 +17°C° 0 mm 4 m/S 746 mmHg 75%
    11:00 +17°C° 0,4 mm 4 m/S 746 mmHg 76%
    12:00 +17°C° 0,4 mm 4 m/S 745 mmHg 76%
    13:00 +17°C° 0,4 mm 4 m/S 745 mmHg 77%
    14:00 +15°C° 1,1 mm 4 m/S 745 mmHg 81%
    15:00 +14°C° 1,1 mm 4 m/S 745 mmHg 85%
    16:00 +14°C° 1,1 mm 3 m/S 745 mmHg 89%
    17:00 +13°C° 0,4 mm 4 m/S 746 mmHg 88%
    18:00 +13°C° 0,4 mm 4 m/S 746 mmHg 87%
    19:00 +13°C° 0,4 mm 4 m/S 746 mmHg 86%
    20:00 +12°C° 0 mm 4 m/S 747 mmHg 86%
    21:00 +12°C° 0 mm 4 m/S 747 mmHg 85%
    22:00 +11°C° 0 mm 4 m/S 747 mmHg 85%
    23:00 +11°C° 0 mm 4 m/S 747 mmHg 85%

    22 Oktober, Sonntag

    Zeit Temperatur Niederschläge Wind Luftdruck Luftfeuchtigkeit
    00:00 +10°C° 0 mm 4 m/S 747 mmHg 85%
    01:00 +10°C° 0 mm 4 m/S 747 mmHg 84%
    02:00 +10°C° 0 mm 4 m/S 747 mmHg 85%
    03:00 +8°C° 0 mm 4 m/S 747 mmHg 85%
    04:00 +8°C° 0 mm 4 m/S 747 mmHg 85%
    05:00 +8°C° 0 mm 4 m/S 747 mmHg 84%
    06:00 +8°C° 0 mm 4 m/S 747 mmHg 84%
    07:00 +7°C° 0 mm 4 m/S 747 mmHg 83%
    08:00 +8°C° 0 mm 5 m/S 747 mmHg 80%
    09:00 +8°C° 0 mm 5 m/S 747 mmHg 78%
    10:00 +9°C° 0 mm 5 m/S 747 mmHg 75%
    11:00 +9°C° 0 mm 5 m/S 747 mmHg 72%
    12:00 +9°C° 0 mm 5 m/S 747 mmHg 69%
    13:00 +10°C° 0 mm 5 m/S 747 mmHg 67%
    14:00 +10°C° 0,1 mm 5 m/S 747 mmHg 68%
    15:00 +10°C° 0,1 mm 5 m/S 747 mmHg 69%
    16:00 +10°C° 0,1 mm 4 m/S 746 mmHg 70%
    17:00 +10°C° 0,2 mm 4 m/S 747 mmHg 73%
    18:00 +8°C° 0,2 mm 4 m/S 747 mmHg 77%
    19:00 +8°C° 0,2 mm 4 m/S 747 mmHg 80%
    20:00 +8°C° 0,3 mm 4 m/S 747 mmHg 81%
    21:00 +8°C° 0,3 mm 4 m/S 748 mmHg 83%
    22:00 +8°C° 0,3 mm 4 m/S 748 mmHg 84%
    23:00 +7°C° 0,2 mm 4 m/S 748 mmHg 84%

    23 Oktober, Montag

    Zeit Temperatur Niederschläge Wind Luftdruck Luftfeuchtigkeit
    00:00 +7°C° 0,2 mm 4 m/S 748 mmHg 84%
    01:00 +7°C° 0,2 mm 4 m/S 748 mmHg 85%
    02:00 +7°C° 0,2 mm 4 m/S 748 mmHg 85%
    03:00 +7°C° 0,2 mm 4 m/S 748 mmHg 86%
    04:00 +7°C° 0,2 mm 4 m/S 748 mmHg 86%
    05:00 +7°C° 0,3 mm 4 m/S 749 mmHg 86%
    06:00 +8°C° 0,3 mm 4 m/S 749 mmHg 86%
    07:00 +8°C° 0,3 mm 4 m/S 749 mmHg 86%
    08:00 +8°C° 0,1 mm 4 m/S 750 mmHg 84%
    09:00 +10°C° 0,1 mm 4 m/S 750 mmHg 81%
    10:00 +10°C° 0,1 mm 4 m/S 751 mmHg 78%
    11:00 +11°C° 0 mm 4 m/S 751 mmHg 76%
    12:00 +12°C° 0 mm 4 m/S 751 mmHg 74%
    13:00 +12°C° 0 mm 4 m/S 751 mmHg 72%
    14:00 +12°C° 0,1 mm 4 m/S 751 mmHg 74%
    15:00 +12°C° 0,1 mm 4 m/S 751 mmHg 77%
    16:00 +12°C° 0,1 mm 3 m/S 751 mmHg 79%
    17:00 +11°C° 0 mm 3 m/S 751 mmHg 81%
    18:00 +11°C° 0 mm 3 m/S 752 mmHg 83%
    19:00 +11°C° 0 mm 3 m/S 752 mmHg 85%
    20:00 +11°C° 0 mm 3 m/S 752 mmHg 85%
    21:00 +11°C° 0 mm 3 m/S 752 mmHg 86%
    22:00 +11°C° 0 mm 3 m/S 753 mmHg 86%
    23:00 +10°C° 0 mm 3 m/S 753 mmHg 86%

    24 Oktober, Dienstag

    Zeit Temperatur Niederschläge Wind Luftdruck Luftfeuchtigkeit
    00:00 +10°C° 0 mm 3 m/S 753 mmHg 87%
    01:00 +9°C° 0 mm 2 m/S 753 mmHg 87%
    02:00 +9°C° 0 mm 2 m/S 753 mmHg 87%
    03:00 +9°C° 0 mm 2 m/S 753 mmHg 87%
    04:00 +9°C° 0 mm 2 m/S 752 mmHg 87%
    05:00 +9°C° 0 mm 2 m/S 753 mmHg 87%
    06:00 +9°C° 0 mm 2 m/S 753 mmHg 87%
    07:00 +9°C° 0 mm 2 m/S 753 mmHg 87%
    08:00 +10°C° 0 mm 2 m/S 753 mmHg 84%
    09:00 +12°C° 0 mm 2 m/S 754 mmHg 81%
    10:00 +12°C° 0 mm 1 m/S 754 mmHg 78%
    11:00 +14°C° 0 mm 1 m/S 754 mmHg 73%
    12:00 +15°C° 0 mm 1 m/S 753 mmHg 68%
    13:00 +16°C° 0 mm 1 m/S 753 mmHg 64%
    14:00 +16°C° 0 mm 1 m/S 753 mmHg 65%
    15:00 +16°C° 0 mm 1 m/S 753 mmHg 66%
    16:00 +16°C° 0 mm 1 m/S 753 mmHg 66%
    17:00 +15°C° 0 mm 1 m/S 753 mmHg 71%
    18:00 +14°C° 0 mm 1 m/S 753 mmHg 75%
    19:00 +12°C° 0 mm 1 m/S 753 mmHg 79%
    20:00 +12°C° 0 mm 1 m/S 753 mmHg 80%
    21:00 +12°C° 0 mm 1 m/S 753 mmHg 80%
    22:00 +11°C° 0 mm 1 m/S 753 mmHg 81%
    23:00 +11°C° 0 mm 1 m/S 753 mmHg 82%
    Mehr zeigen